Home   Weather   Albury   Past weeks

Flag for Australia Past Weather in Albury, New South Wales, Australia — Yesterday and Last 2 Weeks

Now
66 °F

Clear.


Feels Like: 66 °F
Forecast: 64 / 80 °F
Wind: 1 mph from East

Location: Albury Airport

Current Time: Jan 18, 2017 at 6:19:49 am

Latest Report: Jan 18, 2017 at 5:00 am


Visibility: N/A

Pressure: 29.68 "Hg

Humidity: 64%

Dew Point: 54 °F

Location of AlburyLocation

Past Weather in Albury — Graph

°F

Albury Temperature Yesterday

Maximum temperature yesterday: 104 °F (at 4:00 pm)
Minimum temperature yesterday: 63 °F (at 5:00 am)
Average temperature yesterday: 83 °F

High & Low Weather Summary for the Past Weeks

 TemperatureHumidityPressure
High104 °F (Jan 17, 4:00 pm)100% (Jan 9, 10:00 pm)30.09 "Hg (Jan 9, 10:00 pm)
Low54 °F (Jan 15, 6:00 am)9% (Jan 17, 5:00 pm)29.53 "Hg (Jan 13, 12:00 pm)
Average77 °F55%29.85 "Hg
* Reported Jan 3 5:00 am — Jan 18 5:00 am, Albury, Weather by CustomWeather, © 2017

Note: Actual official high and low records may vary slightly from our data, if they occured in-between our weather recording intervals... More about our weather records

Advertising

Albury Weather History for the Previous 24 Hours

Scroll right to see more
 ConditionsComfort  
Time TempWeatherWind HumidityBarometerVisibility
5:00 am
Wed, Jan 18
66 °FClear.1 mph64%29.68 "HgN/A
4:00 am68 °FClear.No wind60%29.65 "HgN/A
3:00 am70 °FClear.No wind57%29.65 "HgN/A
2:00 am70 °FClear.5 mph57%29.68 "HgN/A
1:00 am73 °FClear.No wind50%29.65 "HgN/A
12:00 am77 °FClear.2 mph39%29.68 "HgN/A
11:00 pm
Tue, Jan 17
81 °FClear.No wind34%29.68 "HgN/A
10:00 pm82 °FClear.2 mph28%29.68 "HgN/A
9:00 pm91 °FClear.5 mph17%29.68 "HgN/A
8:00 pm99 °FSunny.7 mph13%29.65 "HgN/A
7:00 pm102 °FSunny.10 mph10%29.65 "HgN/A
6:00 pm104 °FSunny.15 mph9%29.68 "HgN/A
5:00 pm104 °FSunny.15 mph9%29.68 "HgN/A
4:00 pm104 °FSunny.16 mph10%29.71 "HgN/A
3:00 pm102 °FSunny.12 mph13%29.74 "HgN/A
2:00 pm100 °FSunny.9 mph16%29.77 "HgN/A
1:00 pm97 °FSunny.7 mph22%29.80 "HgN/A
12:00 pm91 °FSunny.7 mph28%29.86 "HgN/A
11:00 am86 °FSunny.7 mph35%29.89 "HgN/A
10:00 am79 °FSunny.5 mph48%29.89 "HgN/A
9:00 am73 °FSunny.3 mph53%29.92 "HgN/A
8:00 am68 °FSunny.1 mph69%29.92 "HgN/A
7:00 am63 °FSunny.No wind83%29.89 "HgN/A
6:00 am63 °FClear.1 mph77%29.86 "HgN/A
Weather by CustomWeather, © 2017

See weather overviewHow to use our weather pages